<?xml version="1.0" encoding="UTF-8" standalone="no" ?>
<gpx xmlns="http://www.topografix.com/GPX/1/1" xmlns:xsi="http://www.w3.org/2001/XMLSchema-instance" xsi:schemaLocation="http://www.topografix.com/GPX/1/1 http://www.topografix.com/GPX/1/1/gpx.xsd" version="1.1" creator="VisuGPX - https://www.visugpx.com">
  <metadata>
    <name>Trail BRC Baigura</name>
  </metadata>
  <trk>
    <name><![CDATA[Grande boucle Baigura]]></name>
    <extensions>
      <line xmlns="http://www.topografix.com/GPX/gpx_style/0/2">
        <color>0000FF</color>
        <opacity>1</opacity>
        <width>4</width>
          <extensions>
            <sens>1</sens>
          </extensions>
      </line>
    </extensions>
    <trkseg>
      <trkpt lat="43.30974" lon="-1.28295">
        <ele>299</ele>
        <time>2023-12-21T10:23:37Z</time>
      </trkpt>
      <trkpt lat="43.30945" lon="-1.28303">
        <ele>297</ele>
        <time>2023-12-21T10:23:52Z</time>
      </trkpt>
      <trkpt lat="43.30935" lon="-1.28287">
        <ele>297</ele>
        <time>2023-12-21T10:23:59Z</time>
      </trkpt>
      <trkpt lat="43.30922" lon="-1.28261">
        <ele>297</ele>
        <time>2023-12-21T10:24:11Z</time>
      </trkpt>
      <trkpt lat="43.30907" lon="-1.28219">
        <ele>298</ele>
        <time>2023-12-21T10:24:28Z</time>
      </trkpt>
      <trkpt lat="43.30884" lon="-1.28138">
        <ele>301</ele>
        <time>2023-12-21T10:25:00Z</time>
      </trkpt>
      <trkpt lat="43.30878" lon="-1.28106">
        <ele>301</ele>
        <time>2023-12-21T10:25:12Z</time>
      </trkpt>
      <trkpt lat="43.30867" lon="-1.28089">
        <ele>302</ele>
        <time>2023-12-21T10:25:20Z</time>
      </trkpt>
      <trkpt lat="43.30855" lon="-1.28081">
        <ele>303</ele>
        <time>2023-12-21T10:25:27Z</time>
      </trkpt>
      <trkpt lat="43.30798" lon="-1.28067">
        <ele>307</ele>
        <time>2023-12-21T10:25:56Z</time>
      </trkpt>
      <trkpt lat="43.30768" lon="-1.28052">
        <ele>309</ele>
        <time>2023-12-21T10:26:12Z</time>
      </trkpt>
      <trkpt lat="43.30723" lon="-1.28048">
        <ele>317</ele>
        <time>2023-12-21T10:26:34Z</time>
      </trkpt>
      <trkpt lat="43.30699" lon="-1.2804">
        <ele>321</ele>
        <time>2023-12-21T10:26:47Z</time>
      </trkpt>
      <trkpt lat="43.30679" lon="-1.28038">
        <ele>325</ele>
        <time>2023-12-21T10:26:57Z</time>
      </trkpt>
      <trkpt lat="43.30648" lon="-1.28026">
        <ele>331</ele>
        <time>2023-12-21T10:27:13Z</time>
      </trkpt>
      <trkpt lat="43.30641" lon="-1.28036">
        <ele>333</ele>
        <time>2023-12-21T10:27:18Z</time>
      </trkpt>
      <trkpt lat="43.30635" lon="-1.28101">
        <ele>340</ele>
        <time>2023-12-21T10:27:42Z</time>
      </trkpt>
      <trkpt lat="43.30615" lon="-1.28198">
        <ele>350</ele>
        <time>2023-12-21T10:28:18Z</time>
      </trkpt>
      <trkpt lat="43.30613" lon="-1.28242">
        <ele>354</ele>
        <time>2023-12-21T10:28:34Z</time>
      </trkpt>
      <trkpt lat="43.30607" lon="-1.28272">
        <ele>357</ele>
        <time>2023-12-21T10:28:46Z</time>
      </trkpt>
      <trkpt lat="43.30603" lon="-1.28274">
        <ele>359</ele>
        <time>2023-12-21T10:28:48Z</time>
      </trkpt>
      <trkpt lat="43.30596" lon="-1.28266">
        <ele>360</ele>
        <time>2023-12-21T10:28:52Z</time>
      </trkpt>
      <trkpt lat="43.30567" lon="-1.28212">
        <ele>366</ele>
        <time>2023-12-21T10:29:17Z</time>
      </trkpt>
      <trkpt lat="43.30553" lon="-1.28176">
        <ele>368</ele>
        <time>2023-12-21T10:29:32Z</time>
      </trkpt>
      <trkpt lat="43.30545" lon="-1.28164">
        <ele>369</ele>
        <time>2023-12-21T10:29:38Z</time>
      </trkpt>
      <trkpt lat="43.30534" lon="-1.28155">
        <ele>370</ele>
        <time>2023-12-21T10:29:44Z</time>
      </trkpt>
      <trkpt lat="43.30528" lon="-1.28175">
        <ele>375</ele>
        <time>2023-12-21T10:29:52Z</time>
      </trkpt>
      <trkpt lat="43.30521" lon="-1.2824">
        <ele>387</ele>
        <time>2023-12-21T10:30:16Z</time>
      </trkpt>
      <trkpt lat="43.30506" lon="-1.2829">
        <ele>398</ele>
        <time>2023-12-21T10:30:36Z</time>
      </trkpt>
      <trkpt lat="43.30498" lon="-1.28354">
        <ele>407</ele>
        <time>2023-12-21T10:30:59Z</time>
      </trkpt>
      <trkpt lat="43.3049" lon="-1.28382">
        <ele>411</ele>
        <time>2023-12-21T10:31:10Z</time>
      </trkpt>
      <trkpt lat="43.30486" lon="-1.28386">
        <ele>412</ele>
        <time>2023-12-21T10:31:13Z</time>
      </trkpt>
      <trkpt lat="43.3048" lon="-1.28384">
        <ele>414</ele>
        <time>2023-12-21T10:31:16Z</time>
      </trkpt>
      <trkpt lat="43.30465" lon="-1.28366">
        <ele>417</ele>
        <time>2023-12-21T10:31:26Z</time>
      </trkpt>
      <trkpt lat="43.30449" lon="-1.28357">
        <ele>421</ele>
        <time>2023-12-21T10:31:34Z</time>
      </trkpt>
      <trkpt lat="43.30406" lon="-1.28361">
        <ele>431</ele>
        <time>2023-12-21T10:31:56Z</time>
      </trkpt>
      <trkpt lat="43.30387" lon="-1.28373">
        <ele>433</ele>
        <time>2023-12-21T10:32:06Z</time>
      </trkpt>
      <trkpt lat="43.30365" lon="-1.28412">
        <ele>440</ele>
        <time>2023-12-21T10:32:24Z</time>
      </trkpt>
      <trkpt lat="43.30334" lon="-1.28485">
        <ele>453</ele>
        <time>2023-12-21T10:32:55Z</time>
      </trkpt>
      <trkpt lat="43.30294" lon="-1.28543">
        <ele>465</ele>
        <time>2023-12-21T10:33:24Z</time>
      </trkpt>
      <trkpt lat="43.30229" lon="-1.28601">
        <ele>483</ele>
        <time>2023-12-21T10:34:03Z</time>
      </trkpt>
      <trkpt lat="43.30212" lon="-1.28612">
        <ele>488</ele>
        <time>2023-12-21T10:34:12Z</time>
      </trkpt>
      <trkpt lat="43.30193" lon="-1.28617">
        <ele>494</ele>
        <time>2023-12-21T10:34:22Z</time>
      </trkpt>
      <trkpt lat="43.30183" lon="-1.28623">
        <ele>497</ele>
        <time>2023-12-21T10:34:28Z</time>
      </trkpt>
      <trkpt lat="43.30176" lon="-1.28622">
        <ele>499</ele>
        <time>2023-12-21T10:34:31Z</time>
      </trkpt>
      <trkpt lat="43.30162" lon="-1.28615">
        <ele>502</ele>
        <time>2023-12-21T10:34:38Z</time>
      </trkpt>
      <trkpt lat="43.30128" lon="-1.28586">
        <ele>508</ele>
        <time>2023-12-21T10:34:59Z</time>
      </trkpt>
      <trkpt lat="43.30105" lon="-1.28573">
        <ele>512</ele>
        <time>2023-12-21T10:35:11Z</time>
      </trkpt>
      <trkpt lat="43.30063" lon="-1.28557">
        <ele>519</ele>
        <time>2023-12-21T10:35:33Z</time>
      </trkpt>
      <trkpt lat="43.30037" lon="-1.28543">
        <ele>523</ele>
        <time>2023-12-21T10:35:47Z</time>
      </trkpt>
      <trkpt lat="43.30022" lon="-1.28543">
        <ele>527</ele>
        <time>2023-12-21T10:35:54Z</time>
      </trkpt>
      <trkpt lat="43.30014" lon="-1.28539">
        <ele>528</ele>
        <time>2023-12-21T10:35:59Z</time>
      </trkpt>
      <trkpt lat="43.30006" lon="-1.28525">
        <ele>527</ele>
        <time>2023-12-21T10:36:05Z</time>
      </trkpt>
      <trkpt lat="43.29971" lon="-1.2844">
        <ele>525</ele>
        <time>2023-12-21T10:36:41Z</time>
      </trkpt>
      <trkpt lat="43.29927" lon="-1.28351">
        <ele>519</ele>
        <time>2023-12-21T10:37:20Z</time>
      </trkpt>
      <trkpt lat="43.29916" lon="-1.28341">
        <ele>519</ele>
        <time>2023-12-21T10:37:26Z</time>
      </trkpt>
      <trkpt lat="43.29885" lon="-1.28336">
        <ele>530</ele>
        <time>2023-12-21T10:37:42Z</time>
      </trkpt>
      <trkpt lat="43.29857" lon="-1.28313">
        <ele>538</ele>
        <time>2023-12-21T10:37:58Z</time>
      </trkpt>
      <trkpt lat="43.29852" lon="-1.28305">
        <ele>539</ele>
        <time>2023-12-21T10:38:02Z</time>
      </trkpt>
      <trkpt lat="43.2987" lon="-1.28276">
        <ele>528</ele>
        <time>2023-12-21T10:38:16Z</time>
      </trkpt>
      <trkpt lat="43.29874" lon="-1.28244">
        <ele>523</ele>
        <time>2023-12-21T10:38:28Z</time>
      </trkpt>
      <trkpt lat="43.29872" lon="-1.28223">
        <ele>523</ele>
        <time>2023-12-21T10:38:36Z</time>
      </trkpt>
      <trkpt lat="43.29861" lon="-1.28174">
        <ele>524</ele>
        <time>2023-12-21T10:38:54Z</time>
      </trkpt>
      <trkpt lat="43.29852" lon="-1.2815">
        <ele>525</ele>
        <time>2023-12-21T10:39:04Z</time>
      </trkpt>
      <trkpt lat="43.29808" lon="-1.28105">
        <ele>538</ele>
        <time>2023-12-21T10:39:32Z</time>
      </trkpt>
      <trkpt lat="43.29767" lon="-1.28044">
        <ele>549</ele>
        <time>2023-12-21T10:40:02Z</time>
      </trkpt>
      <trkpt lat="43.29758" lon="-1.28038">
        <ele>552</ele>
        <time>2023-12-21T10:40:07Z</time>
      </trkpt>
      <trkpt lat="43.29743" lon="-1.2802">
        <ele>555</ele>
        <time>2023-12-21T10:40:17Z</time>
      </trkpt>
      <trkpt lat="43.29726" lon="-1.27978">
        <ele>555</ele>
        <time>2023-12-21T10:40:34Z</time>
      </trkpt>
      <trkpt lat="43.29705" lon="-1.2795">
        <ele>557</ele>
        <time>2023-12-21T10:40:49Z</time>
      </trkpt>
      <trkpt lat="43.29693" lon="-1.27925">
        <ele>556</ele>
        <time>2023-12-21T10:41:00Z</time>
      </trkpt>
      <trkpt lat="43.29667" lon="-1.27892">
        <ele>557</ele>
        <time>2023-12-21T10:41:17Z</time>
      </trkpt>
      <trkpt lat="43.29651" lon="-1.27882">
        <ele>561</ele>
        <time>2023-12-21T10:41:26Z</time>
      </trkpt>
      <trkpt lat="43.29623" lon="-1.27881">
        <ele>571</ele>
        <time>2023-12-21T10:41:40Z</time>
      </trkpt>
      <trkpt lat="43.29611" lon="-1.27877">
        <ele>575</ele>
        <time>2023-12-21T10:41:46Z</time>
      </trkpt>
      <trkpt lat="43.29584" lon="-1.27832">
        <ele>576</ele>
        <time>2023-12-21T10:42:08Z</time>
      </trkpt>
      <trkpt lat="43.29554" lon="-1.27808">
        <ele>584</ele>
        <time>2023-12-21T10:42:25Z</time>
      </trkpt>
      <trkpt lat="43.29547" lon="-1.27797">
        <ele>585</ele>
        <time>2023-12-21T10:42:30Z</time>
      </trkpt>
      <trkpt lat="43.29535" lon="-1.27772">
        <ele>584</ele>
        <time>2023-12-21T10:42:41Z</time>
      </trkpt>
      <trkpt lat="43.29523" lon="-1.27728">
        <ele>578</ele>
        <time>2023-12-21T10:42:58Z</time>
      </trkpt>
      <trkpt lat="43.29518" lon="-1.27693">
        <ele>571</ele>
        <time>2023-12-21T10:43:11Z</time>
      </trkpt>
      <trkpt lat="43.29511" lon="-1.27674">
        <ele>570</ele>
        <time>2023-12-21T10:43:19Z</time>
      </trkpt>
      <trkpt lat="43.29488" lon="-1.27643">
        <ele>576</ele>
        <time>2023-12-21T10:43:35Z</time>
      </trkpt>
      <trkpt lat="43.29462" lon="-1.27622">
        <ele>587</ele>
        <time>2023-12-21T10:43:50Z</time>
      </trkpt>
      <trkpt lat="43.29456" lon="-1.27612">
        <ele>588</ele>
        <time>2023-12-21T10:43:55Z</time>
      </trkpt>
      <trkpt lat="43.29459" lon="-1.2759">
        <ele>582</ele>
        <time>2023-12-21T10:44:03Z</time>
      </trkpt>
      <trkpt lat="43.29455" lon="-1.27545">
        <ele>576</ele>
        <time>2023-12-21T10:44:20Z</time>
      </trkpt>
      <trkpt lat="43.2945" lon="-1.27515">
        <ele>574</ele>
        <time>2023-12-21T10:44:31Z</time>
      </trkpt>
      <trkpt lat="43.29434" lon="-1.27456">
        <ele>571</ele>
        <time>2023-12-21T10:44:54Z</time>
      </trkpt>
      <trkpt lat="43.29407" lon="-1.27405">
        <ele>569</ele>
        <time>2023-12-21T10:45:17Z</time>
      </trkpt>
      <trkpt lat="43.29388" lon="-1.27383">
        <ele>567</ele>
        <time>2023-12-21T10:45:29Z</time>
      </trkpt>
      <trkpt lat="43.29355" lon="-1.27371">
        <ele>573</ele>
        <time>2023-12-21T10:45:46Z</time>
      </trkpt>
      <trkpt lat="43.29328" lon="-1.27348">
        <ele>575</ele>
        <time>2023-12-21T10:46:02Z</time>
      </trkpt>
      <trkpt lat="43.29316" lon="-1.27321">
        <ele>573</ele>
        <time>2023-12-21T10:46:14Z</time>
      </trkpt>
      <trkpt lat="43.29313" lon="-1.27292">
        <ele>569</ele>
        <time>2023-12-21T10:46:25Z</time>
      </trkpt>
      <trkpt lat="43.29303" lon="-1.27268">
        <ele>570</ele>
        <time>2023-12-21T10:46:35Z</time>
      </trkpt>
      <trkpt lat="43.29287" lon="-1.27258">
        <ele>574</ele>
        <time>2023-12-21T10:46:43Z</time>
      </trkpt>
      <trkpt lat="43.29268" lon="-1.27251">
        <ele>580</ele>
        <time>2023-12-21T10:46:53Z</time>
      </trkpt>
      <trkpt lat="43.29257" lon="-1.27255">
        <ele>584</ele>
        <time>2023-12-21T10:46:59Z</time>
      </trkpt>
      <trkpt lat="43.29225" lon="-1.27281">
        <ele>594</ele>
        <time>2023-12-21T10:47:18Z</time>
      </trkpt>
      <trkpt lat="43.29201" lon="-1.27291">
        <ele>600</ele>
        <time>2023-12-21T10:47:30Z</time>
      </trkpt>
      <trkpt lat="43.2919" lon="-1.27291">
        <ele>601</ele>
        <time>2023-12-21T10:47:36Z</time>
      </trkpt>
      <trkpt lat="43.29169" lon="-1.27283">
        <ele>603</ele>
        <time>2023-12-21T10:47:46Z</time>
      </trkpt>
      <trkpt lat="43.29158" lon="-1.27285">
        <ele>603</ele>
        <time>2023-12-21T10:47:52Z</time>
      </trkpt>
      <trkpt lat="43.29136" lon="-1.27297">
        <ele>604</ele>
        <time>2023-12-21T10:48:04Z</time>
      </trkpt>
      <trkpt lat="43.29122" lon="-1.2731">
        <ele>607</ele>
        <time>2023-12-21T10:48:12Z</time>
      </trkpt>
      <trkpt lat="43.29071" lon="-1.27343">
        <ele>614</ele>
        <time>2023-12-21T10:48:41Z</time>
      </trkpt>
      <trkpt lat="43.2905" lon="-1.27353">
        <ele>615</ele>
        <time>2023-12-21T10:48:52Z</time>
      </trkpt>
      <trkpt lat="43.28984" lon="-1.27401">
        <ele>623</ele>
        <time>2023-12-21T10:49:29Z</time>
      </trkpt>
      <trkpt lat="43.2891" lon="-1.27464">
        <ele>625</ele>
        <time>2023-12-21T10:50:13Z</time>
      </trkpt>
      <trkpt lat="43.28836" lon="-1.27515">
        <ele>624</ele>
        <time>2023-12-21T10:50:54Z</time>
      </trkpt>
      <trkpt lat="43.28804" lon="-1.27528">
        <ele>626</ele>
        <time>2023-12-21T10:51:11Z</time>
      </trkpt>
      <trkpt lat="43.28794" lon="-1.27529">
        <ele>626</ele>
        <time>2023-12-21T10:51:16Z</time>
      </trkpt>
      <trkpt lat="43.28729" lon="-1.27511">
        <ele>622</ele>
        <time>2023-12-21T10:51:49Z</time>
      </trkpt>
      <trkpt lat="43.2872" lon="-1.27511">
        <ele>622</ele>
        <time>2023-12-21T10:51:53Z</time>
      </trkpt>
      <trkpt lat="43.28716" lon="-1.27517">
        <ele>623</ele>
        <time>2023-12-21T10:51:56Z</time>
      </trkpt>
      <trkpt lat="43.28721" lon="-1.27524">
        <ele>623</ele>
        <time>2023-12-21T10:52:00Z</time>
      </trkpt>
      <trkpt lat="43.28783" lon="-1.27581">
        <ele>637</ele>
        <time>2023-12-21T10:52:37Z</time>
      </trkpt>
      <trkpt lat="43.28843" lon="-1.27665">
        <ele>653</ele>
        <time>2023-12-21T10:53:20Z</time>
      </trkpt>
      <trkpt lat="43.28877" lon="-1.27702">
        <ele>660</ele>
        <time>2023-12-21T10:53:42Z</time>
      </trkpt>
      <trkpt lat="43.28903" lon="-1.27724">
        <ele>667</ele>
        <time>2023-12-21T10:53:57Z</time>
      </trkpt>
      <trkpt lat="43.28912" lon="-1.27727">
        <ele>671</ele>
        <time>2023-12-21T10:54:02Z</time>
      </trkpt>
      <trkpt lat="43.28933" lon="-1.27746">
        <ele>677</ele>
        <time>2023-12-21T10:54:14Z</time>
      </trkpt>
      <trkpt lat="43.28955" lon="-1.27758">
        <ele>682</ele>
        <time>2023-12-21T10:54:26Z</time>
      </trkpt>
      <trkpt lat="43.28965" lon="-1.27775">
        <ele>682</ele>
        <time>2023-12-21T10:54:34Z</time>
      </trkpt>
      <trkpt lat="43.28978" lon="-1.27785">
        <ele>685</ele>
        <time>2023-12-21T10:54:42Z</time>
      </trkpt>
      <trkpt lat="43.29027" lon="-1.27812">
        <ele>697</ele>
        <time>2023-12-21T10:55:08Z</time>
      </trkpt>
      <trkpt lat="43.29068" lon="-1.27829">
        <ele>708</ele>
        <time>2023-12-21T10:55:29Z</time>
      </trkpt>
      <trkpt lat="43.29132" lon="-1.27871">
        <ele>720</ele>
        <time>2023-12-21T10:56:05Z</time>
      </trkpt>
      <trkpt lat="43.29177" lon="-1.27913">
        <ele>727</ele>
        <time>2023-12-21T10:56:32Z</time>
      </trkpt>
      <trkpt lat="43.29186" lon="-1.27925">
        <ele>728</ele>
        <time>2023-12-21T10:56:38Z</time>
      </trkpt>
      <trkpt lat="43.29225" lon="-1.27958">
        <ele>736</ele>
        <time>2023-12-21T10:57:01Z</time>
      </trkpt>
      <trkpt lat="43.29253" lon="-1.28003">
        <ele>742</ele>
        <time>2023-12-21T10:57:23Z</time>
      </trkpt>
      <trkpt lat="43.29294" lon="-1.28037">
        <ele>743</ele>
        <time>2023-12-21T10:57:47Z</time>
      </trkpt>
      <trkpt lat="43.29316" lon="-1.28061">
        <ele>747</ele>
        <time>2023-12-21T10:58:01Z</time>
      </trkpt>
      <trkpt lat="43.2934" lon="-1.28111">
        <ele>750</ele>
        <time>2023-12-21T10:58:23Z</time>
      </trkpt>
      <trkpt lat="43.29346" lon="-1.28117">
        <ele>749</ele>
        <time>2023-12-21T10:58:27Z</time>
      </trkpt>
      <trkpt lat="43.29364" lon="-1.28149">
        <ele>748</ele>
        <time>2023-12-21T10:58:41Z</time>
      </trkpt>
      <trkpt lat="43.29379" lon="-1.28166">
        <ele>749</ele>
        <time>2023-12-21T10:58:51Z</time>
      </trkpt>
      <trkpt lat="43.29389" lon="-1.28196">
        <ele>752</ele>
        <time>2023-12-21T10:59:03Z</time>
      </trkpt>
      <trkpt lat="43.29398" lon="-1.28246">
        <ele>757</ele>
        <time>2023-12-21T10:59:22Z</time>
      </trkpt>
      <trkpt lat="43.29398" lon="-1.28267">
        <ele>759</ele>
        <time>2023-12-21T10:59:29Z</time>
      </trkpt>
      <trkpt lat="43.29407" lon="-1.28295">
        <ele>762</ele>
        <time>2023-12-21T10:59:41Z</time>
      </trkpt>
      <trkpt lat="43.29407" lon="-1.28344">
        <ele>766</ele>
        <time>2023-12-21T10:59:58Z</time>
      </trkpt>
      <trkpt lat="43.29422" lon="-1.28397">
        <ele>772</ele>
        <time>2023-12-21T11:00:19Z</time>
      </trkpt>
      <trkpt lat="43.29419" lon="-1.28444">
        <ele>777</ele>
        <time>2023-12-21T11:00:36Z</time>
      </trkpt>
      <trkpt lat="43.2942" lon="-1.2847">
        <ele>778</ele>
        <time>2023-12-21T11:00:46Z</time>
      </trkpt>
      <trkpt lat="43.29455" lon="-1.28565">
        <ele>778</ele>
        <time>2023-12-21T11:01:25Z</time>
      </trkpt>
      <trkpt lat="43.29461" lon="-1.28605">
        <ele>784</ele>
        <time>2023-12-21T11:01:39Z</time>
      </trkpt>
      <trkpt lat="43.2946" lon="-1.28649">
        <ele>791</ele>
        <time>2023-12-21T11:01:55Z</time>
      </trkpt>
      <trkpt lat="43.29467" lon="-1.28686">
        <ele>799</ele>
        <time>2023-12-21T11:02:09Z</time>
      </trkpt>
      <trkpt lat="43.29466" lon="-1.28717">
        <ele>807</ele>
        <time>2023-12-21T11:02:21Z</time>
      </trkpt>
      <trkpt lat="43.29469" lon="-1.28733">
        <ele>812</ele>
        <time>2023-12-21T11:02:27Z</time>
      </trkpt>
      <trkpt lat="43.29466" lon="-1.28779">
        <ele>823</ele>
        <time>2023-12-21T11:02:44Z</time>
      </trkpt>
      <trkpt lat="43.29474" lon="-1.28826">
        <ele>835</ele>
        <time>2023-12-21T11:03:01Z</time>
      </trkpt>
      <trkpt lat="43.2946" lon="-1.2888">
        <ele>839</ele>
        <time>2023-12-21T11:03:22Z</time>
      </trkpt>
      <trkpt lat="43.29456" lon="-1.28884">
        <ele>839</ele>
        <time>2023-12-21T11:03:24Z</time>
      </trkpt>
      <trkpt lat="43.29447" lon="-1.28884">
        <ele>838</ele>
        <time>2023-12-21T11:03:29Z</time>
      </trkpt>
      <trkpt lat="43.29442" lon="-1.28912">
        <ele>840</ele>
        <time>2023-12-21T11:03:39Z</time>
      </trkpt>
      <trkpt lat="43.29403" lon="-1.28953">
        <ele>832</ele>
        <time>2023-12-21T11:04:04Z</time>
      </trkpt>
      <trkpt lat="43.29384" lon="-1.28999">
        <ele>831</ele>
        <time>2023-12-21T11:04:23Z</time>
      </trkpt>
      <trkpt lat="43.2934" lon="-1.29052">
        <ele>835</ele>
        <time>2023-12-21T11:04:53Z</time>
      </trkpt>
      <trkpt lat="43.2931" lon="-1.29069">
        <ele>835</ele>
        <time>2023-12-21T11:05:09Z</time>
      </trkpt>
      <trkpt lat="43.2929" lon="-1.29093">
        <ele>837</ele>
        <time>2023-12-21T11:05:22Z</time>
      </trkpt>
      <trkpt lat="43.29274" lon="-1.29106">
        <ele>837</ele>
        <time>2023-12-21T11:05:31Z</time>
      </trkpt>
      <trkpt lat="43.29236" lon="-1.29147">
        <ele>845</ele>
        <time>2023-12-21T11:05:56Z</time>
      </trkpt>
      <trkpt lat="43.29184" lon="-1.29184">
        <ele>854</ele>
        <time>2023-12-21T11:06:25Z</time>
      </trkpt>
      <trkpt lat="43.29153" lon="-1.29226">
        <ele>860</ele>
        <time>2023-12-21T11:06:47Z</time>
      </trkpt>
      <trkpt lat="43.29134" lon="-1.29258">
        <ele>867</ele>
        <time>2023-12-21T11:07:02Z</time>
      </trkpt>
      <trkpt lat="43.29101" lon="-1.29298">
        <ele>873</ele>
        <time>2023-12-21T11:07:24Z</time>
      </trkpt>
      <trkpt lat="43.29096" lon="-1.29298">
        <ele>874</ele>
        <time>2023-12-21T11:07:26Z</time>
      </trkpt>
      <trkpt lat="43.29091" lon="-1.29285">
        <ele>876</ele>
        <time>2023-12-21T11:07:32Z</time>
      </trkpt>
      <trkpt lat="43.29094" lon="-1.2926">
        <ele>875</ele>
        <time>2023-12-21T11:07:41Z</time>
      </trkpt>
      <trkpt lat="43.29091" lon="-1.29248">
        <ele>876</ele>
        <time>2023-12-21T11:07:45Z</time>
      </trkpt>
      <trkpt lat="43.29086" lon="-1.29241">
        <ele>874</ele>
        <time>2023-12-21T11:07:49Z</time>
      </trkpt>
      <trkpt lat="43.2908" lon="-1.29238">
        <ele>873</ele>
        <time>2023-12-21T11:07:52Z</time>
      </trkpt>
      <trkpt lat="43.29072" lon="-1.29245">
        <ele>873</ele>
        <time>2023-12-21T11:07:57Z</time>
      </trkpt>
      <trkpt lat="43.29062" lon="-1.29264">
        <ele>873</ele>
        <time>2023-12-21T11:08:06Z</time>
      </trkpt>
      <trkpt lat="43.29063" lon="-1.2927">
        <ele>873</ele>
        <time>2023-12-21T11:08:08Z</time>
      </trkpt>
      <trkpt lat="43.29068" lon="-1.2927">
        <ele>874</ele>
        <time>2023-12-21T11:08:10Z</time>
      </trkpt>
      <trkpt lat="43.29067" lon="-1.29273">
        <ele>874</ele>
        <time>2023-12-21T11:08:11Z</time>
      </trkpt>
      <trkpt lat="43.29052" lon="-1.29294">
        <ele>871</ele>
        <time>2023-12-21T11:08:22Z</time>
      </trkpt>
      <trkpt lat="43.29043" lon="-1.29357">
        <ele>870</ele>
        <time>2023-12-21T11:08:46Z</time>
      </trkpt>
      <trkpt lat="43.29019" lon="-1.29419">
        <ele>869</ele>
        <time>2023-12-21T11:09:11Z</time>
      </trkpt>
      <trkpt lat="43.29007" lon="-1.29434">
        <ele>870</ele>
        <time>2023-12-21T11:09:19Z</time>
      </trkpt>
      <trkpt lat="43.2899" lon="-1.29477">
        <ele>864</ele>
        <time>2023-12-21T11:09:37Z</time>
      </trkpt>
      <trkpt lat="43.28935" lon="-1.29551">
        <ele>848</ele>
        <time>2023-12-21T11:10:16Z</time>
      </trkpt>
      <trkpt lat="43.28908" lon="-1.2957">
        <ele>846</ele>
        <time>2023-12-21T11:10:31Z</time>
      </trkpt>
      <trkpt lat="43.28883" lon="-1.29593">
        <ele>844</ele>
        <time>2023-12-21T11:10:46Z</time>
      </trkpt>
      <trkpt lat="43.28842" lon="-1.29615">
        <ele>837</ele>
        <time>2023-12-21T11:11:08Z</time>
      </trkpt>
      <trkpt lat="43.28825" lon="-1.29617">
        <ele>834</ele>
        <time>2023-12-21T11:11:16Z</time>
      </trkpt>
      <trkpt lat="43.2879" lon="-1.29611">
        <ele>828</ele>
        <time>2023-12-21T11:11:34Z</time>
      </trkpt>
      <trkpt lat="43.28722" lon="-1.29613">
        <ele>817</ele>
        <time>2023-12-21T11:12:08Z</time>
      </trkpt>
      <trkpt lat="43.28705" lon="-1.29618">
        <ele>816</ele>
        <time>2023-12-21T11:12:17Z</time>
      </trkpt>
      <trkpt lat="43.28682" lon="-1.29646">
        <ele>814</ele>
        <time>2023-12-21T11:12:32Z</time>
      </trkpt>
      <trkpt lat="43.28663" lon="-1.29677">
        <ele>809</ele>
        <time>2023-12-21T11:12:47Z</time>
      </trkpt>
      <trkpt lat="43.28656" lon="-1.29699">
        <ele>804</ele>
        <time>2023-12-21T11:12:56Z</time>
      </trkpt>
      <trkpt lat="43.28654" lon="-1.29737">
        <ele>796</ele>
        <time>2023-12-21T11:13:10Z</time>
      </trkpt>
      <trkpt lat="43.28658" lon="-1.29749">
        <ele>794</ele>
        <time>2023-12-21T11:13:14Z</time>
      </trkpt>
      <trkpt lat="43.28676" lon="-1.29781">
        <ele>789</ele>
        <time>2023-12-21T11:13:29Z</time>
      </trkpt>
      <trkpt lat="43.28683" lon="-1.29818">
        <ele>781</ele>
        <time>2023-12-21T11:13:43Z</time>
      </trkpt>
      <trkpt lat="43.28711" lon="-1.29873">
        <ele>772</ele>
        <time>2023-12-21T11:14:08Z</time>
      </trkpt>
      <trkpt lat="43.28751" lon="-1.29982">
        <ele>756</ele>
        <time>2023-12-21T11:14:52Z</time>
      </trkpt>
      <trkpt lat="43.28765" lon="-1.30001">
        <ele>752</ele>
        <time>2023-12-21T11:15:02Z</time>
      </trkpt>
      <trkpt lat="43.28827" lon="-1.30067">
        <ele>737</ele>
        <time>2023-12-21T11:15:41Z</time>
      </trkpt>
      <trkpt lat="43.28847" lon="-1.30079">
        <ele>734</ele>
        <time>2023-12-21T11:15:52Z</time>
      </trkpt>
      <trkpt lat="43.2889" lon="-1.30113">
        <ele>722</ele>
        <time>2023-12-21T11:16:17Z</time>
      </trkpt>
      <trkpt lat="43.28944" lon="-1.30131">
        <ele>713</ele>
        <time>2023-12-21T11:16:45Z</time>
      </trkpt>
      <trkpt lat="43.28959" lon="-1.30139">
        <ele>710</ele>
        <time>2023-12-21T11:16:53Z</time>
      </trkpt>
      <trkpt lat="43.28975" lon="-1.30141">
        <ele>709</ele>
        <time>2023-12-21T11:17:01Z</time>
      </trkpt>
      <trkpt lat="43.29013" lon="-1.30139">
        <ele>707</ele>
        <time>2023-12-21T11:17:20Z</time>
      </trkpt>
      <trkpt lat="43.29051" lon="-1.30124">
        <ele>709</ele>
        <time>2023-12-21T11:17:40Z</time>
      </trkpt>
      <trkpt lat="43.29069" lon="-1.30123">
        <ele>708</ele>
        <time>2023-12-21T11:17:49Z</time>
      </trkpt>
      <trkpt lat="43.29112" lon="-1.30135">
        <ele>701</ele>
        <time>2023-12-21T11:18:11Z</time>
      </trkpt>
      <trkpt lat="43.29145" lon="-1.30148">
        <ele>696</ele>
        <time>2023-12-21T11:18:28Z</time>
      </trkpt>
      <trkpt lat="43.29175" lon="-1.30153">
        <ele>694</ele>
        <time>2023-12-21T11:18:43Z</time>
      </trkpt>
      <trkpt lat="43.29202" lon="-1.30168">
        <ele>689</ele>
        <time>2023-12-21T11:18:57Z</time>
      </trkpt>
      <trkpt lat="43.2922" lon="-1.30172">
        <ele>687</ele>
        <time>2023-12-21T11:19:07Z</time>
      </trkpt>
      <trkpt lat="43.29236" lon="-1.30184">
        <ele>684</ele>
        <time>2023-12-21T11:19:16Z</time>
      </trkpt>
      <trkpt lat="43.29249" lon="-1.30202">
        <ele>679</ele>
        <time>2023-12-21T11:19:25Z</time>
      </trkpt>
      <trkpt lat="43.29259" lon="-1.30248">
        <ele>668</ele>
        <time>2023-12-21T11:19:42Z</time>
      </trkpt>
      <trkpt lat="43.29279" lon="-1.3028">
        <ele>657</ele>
        <time>2023-12-21T11:19:58Z</time>
      </trkpt>
      <trkpt lat="43.29293" lon="-1.30313">
        <ele>649</ele>
        <time>2023-12-21T11:20:12Z</time>
      </trkpt>
      <trkpt lat="43.29303" lon="-1.30391">
        <ele>631</ele>
        <time>2023-12-21T11:20:40Z</time>
      </trkpt>
      <trkpt lat="43.29308" lon="-1.30492">
        <ele>609</ele>
        <time>2023-12-21T11:21:17Z</time>
      </trkpt>
      <trkpt lat="43.29327" lon="-1.30577">
        <ele>587</ele>
        <time>2023-12-21T11:21:50Z</time>
      </trkpt>
      <trkpt lat="43.29337" lon="-1.30588">
        <ele>583</ele>
        <time>2023-12-21T11:21:56Z</time>
      </trkpt>
      <trkpt lat="43.29355" lon="-1.30591">
        <ele>580</ele>
        <time>2023-12-21T11:22:05Z</time>
      </trkpt>
      <trkpt lat="43.29406" lon="-1.3059">
        <ele>573</ele>
        <time>2023-12-21T11:22:31Z</time>
      </trkpt>
      <trkpt lat="43.29434" lon="-1.30621">
        <ele>557</ele>
        <time>2023-12-21T11:22:49Z</time>
      </trkpt>
      <trkpt lat="43.29452" lon="-1.30626">
        <ele>551</ele>
        <time>2023-12-21T11:22:58Z</time>
      </trkpt>
      <trkpt lat="43.29468" lon="-1.30635">
        <ele>545</ele>
        <time>2023-12-21T11:23:07Z</time>
      </trkpt>
      <trkpt lat="43.29494" lon="-1.30636">
        <ele>538</ele>
        <time>2023-12-21T11:23:20Z</time>
      </trkpt>
      <trkpt lat="43.29515" lon="-1.30666">
        <ele>527</ele>
        <time>2023-12-21T11:23:35Z</time>
      </trkpt>
      <trkpt lat="43.29524" lon="-1.30669">
        <ele>524</ele>
        <time>2023-12-21T11:23:39Z</time>
      </trkpt>
      <trkpt lat="43.29536" lon="-1.30667">
        <ele>522</ele>
        <time>2023-12-21T11:23:45Z</time>
      </trkpt>
      <trkpt lat="43.29548" lon="-1.3067">
        <ele>518</ele>
        <time>2023-12-21T11:23:52Z</time>
      </trkpt>
      <trkpt lat="43.29569" lon="-1.30681">
        <ele>511</ele>
        <time>2023-12-21T11:24:03Z</time>
      </trkpt>
      <trkpt lat="43.29575" lon="-1.30689">
        <ele>508</ele>
        <time>2023-12-21T11:24:07Z</time>
      </trkpt>
      <trkpt lat="43.29578" lon="-1.30719">
        <ele>502</ele>
        <time>2023-12-21T11:24:18Z</time>
      </trkpt>
      <trkpt lat="43.29584" lon="-1.30743">
        <ele>497</ele>
        <time>2023-12-21T11:24:27Z</time>
      </trkpt>
      <trkpt lat="43.29584" lon="-1.30756">
        <ele>494</ele>
        <time>2023-12-21T11:24:32Z</time>
      </trkpt>
      <trkpt lat="43.29565" lon="-1.30823">
        <ele>483</ele>
        <time>2023-12-21T11:24:58Z</time>
      </trkpt>
      <trkpt lat="43.29536" lon="-1.3087">
        <ele>478</ele>
        <time>2023-12-21T11:25:21Z</time>
      </trkpt>
      <trkpt lat="43.29533" lon="-1.3091">
        <ele>468</ele>
        <time>2023-12-21T11:25:35Z</time>
      </trkpt>
      <trkpt lat="43.29518" lon="-1.30956">
        <ele>464</ele>
        <time>2023-12-21T11:25:54Z</time>
      </trkpt>
      <trkpt lat="43.29501" lon="-1.3099">
        <ele>461</ele>
        <time>2023-12-21T11:26:09Z</time>
      </trkpt>
      <trkpt lat="43.29495" lon="-1.31031">
        <ele>459</ele>
        <time>2023-12-21T11:26:24Z</time>
      </trkpt>
      <trkpt lat="43.29496" lon="-1.31057">
        <ele>459</ele>
        <time>2023-12-21T11:26:33Z</time>
      </trkpt>
      <trkpt lat="43.29502" lon="-1.31076">
        <ele>459</ele>
        <time>2023-12-21T11:26:41Z</time>
      </trkpt>
      <trkpt lat="43.29536" lon="-1.31109">
        <ele>452</ele>
        <time>2023-12-21T11:27:02Z</time>
      </trkpt>
      <trkpt lat="43.2954" lon="-1.31121">
        <ele>451</ele>
        <time>2023-12-21T11:27:07Z</time>
      </trkpt>
      <trkpt lat="43.2954" lon="-1.3113">
        <ele>450</ele>
        <time>2023-12-21T11:27:10Z</time>
      </trkpt>
      <trkpt lat="43.29533" lon="-1.31145">
        <ele>451</ele>
        <time>2023-12-21T11:27:16Z</time>
      </trkpt>
      <trkpt lat="43.29504" lon="-1.31186">
        <ele>454</ele>
        <time>2023-12-21T11:27:37Z</time>
      </trkpt>
      <trkpt lat="43.29479" lon="-1.31244">
        <ele>451</ele>
        <time>2023-12-21T11:28:02Z</time>
      </trkpt>
      <trkpt lat="43.29457" lon="-1.31282">
        <ele>452</ele>
        <time>2023-12-21T11:28:19Z</time>
      </trkpt>
      <trkpt lat="43.29455" lon="-1.31293">
        <ele>451</ele>
        <time>2023-12-21T11:28:23Z</time>
      </trkpt>
      <trkpt lat="43.29456" lon="-1.31309">
        <ele>450</ele>
        <time>2023-12-21T11:28:29Z</time>
      </trkpt>
      <trkpt lat="43.29465" lon="-1.31332">
        <ele>449</ele>
        <time>2023-12-21T11:28:39Z</time>
      </trkpt>
      <trkpt lat="43.29482" lon="-1.3135">
        <ele>452</ele>
        <time>2023-12-21T11:28:50Z</time>
      </trkpt>
      <trkpt lat="43.29483" lon="-1.31378">
        <ele>456</ele>
        <time>2023-12-21T11:29:00Z</time>
      </trkpt>
      <trkpt lat="43.29497" lon="-1.31434">
        <ele>469</ele>
        <time>2023-12-21T11:29:21Z</time>
      </trkpt>
      <trkpt lat="43.29517" lon="-1.31478">
        <ele>481</ele>
        <time>2023-12-21T11:29:40Z</time>
      </trkpt>
      <trkpt lat="43.29534" lon="-1.31556">
        <ele>508</ele>
        <time>2023-12-21T11:30:10Z</time>
      </trkpt>
      <trkpt lat="43.29539" lon="-1.3164">
        <ele>534</ele>
        <time>2023-12-21T11:30:41Z</time>
      </trkpt>
      <trkpt lat="43.29543" lon="-1.31652">
        <ele>539</ele>
        <time>2023-12-21T11:30:45Z</time>
      </trkpt>
      <trkpt lat="43.29552" lon="-1.31666">
        <ele>547</ele>
        <time>2023-12-21T11:30:52Z</time>
      </trkpt>
      <trkpt lat="43.29595" lon="-1.31704">
        <ele>562</ele>
        <time>2023-12-21T11:31:18Z</time>
      </trkpt>
      <trkpt lat="43.29623" lon="-1.31718">
        <ele>562</ele>
        <time>2023-12-21T11:31:33Z</time>
      </trkpt>
      <trkpt lat="43.29636" lon="-1.31728">
        <ele>563</ele>
        <time>2023-12-21T11:31:40Z</time>
      </trkpt>
      <trkpt lat="43.29688" lon="-1.3175">
        <ele>555</ele>
        <time>2023-12-21T11:32:07Z</time>
      </trkpt>
      <trkpt lat="43.29714" lon="-1.31754">
        <ele>544</ele>
        <time>2023-12-21T11:32:21Z</time>
      </trkpt>
      <trkpt lat="43.2973" lon="-1.31762">
        <ele>536</ele>
        <time>2023-12-21T11:32:29Z</time>
      </trkpt>
      <trkpt lat="43.29743" lon="-1.3177">
        <ele>530</ele>
        <time>2023-12-21T11:32:36Z</time>
      </trkpt>
      <trkpt lat="43.2975" lon="-1.31783">
        <ele>526</ele>
        <time>2023-12-21T11:32:42Z</time>
      </trkpt>
      <trkpt lat="43.29766" lon="-1.31793">
        <ele>520</ele>
        <time>2023-12-21T11:32:51Z</time>
      </trkpt>
      <trkpt lat="43.29782" lon="-1.31789">
        <ele>516</ele>
        <time>2023-12-21T11:32:59Z</time>
      </trkpt>
      <trkpt lat="43.29798" lon="-1.31793">
        <ele>512</ele>
        <time>2023-12-21T11:33:07Z</time>
      </trkpt>
      <trkpt lat="43.2986" lon="-1.31831">
        <ele>502</ele>
        <time>2023-12-21T11:33:41Z</time>
      </trkpt>
      <trkpt lat="43.29891" lon="-1.3187">
        <ele>488</ele>
        <time>2023-12-21T11:34:02Z</time>
      </trkpt>
      <trkpt lat="43.29915" lon="-1.31874">
        <ele>484</ele>
        <time>2023-12-21T11:34:14Z</time>
      </trkpt>
      <trkpt lat="43.29906" lon="-1.31936">
        <ele>470</ele>
        <time>2023-12-21T11:34:37Z</time>
      </trkpt>
      <trkpt lat="43.29906" lon="-1.31995">
        <ele>453</ele>
        <time>2023-12-21T11:34:59Z</time>
      </trkpt>
      <trkpt lat="43.29914" lon="-1.32029">
        <ele>444</ele>
        <time>2023-12-21T11:35:12Z</time>
      </trkpt>
      <trkpt lat="43.29908" lon="-1.32084">
        <ele>429</ele>
        <time>2023-12-21T11:35:32Z</time>
      </trkpt>
      <trkpt lat="43.29907" lon="-1.32124">
        <ele>419</ele>
        <time>2023-12-21T11:35:47Z</time>
      </trkpt>
      <trkpt lat="43.29913" lon="-1.32152">
        <ele>413</ele>
        <time>2023-12-21T11:35:57Z</time>
      </trkpt>
      <trkpt lat="43.29928" lon="-1.32176">
        <ele>403</ele>
        <time>2023-12-21T11:36:09Z</time>
      </trkpt>
      <trkpt lat="43.29923" lon="-1.32196">
        <ele>400</ele>
        <time>2023-12-21T11:36:16Z</time>
      </trkpt>
      <trkpt lat="43.29926" lon="-1.32242">
        <ele>388</ele>
        <time>2023-12-21T11:36:33Z</time>
      </trkpt>
      <trkpt lat="43.29927" lon="-1.32334">
        <ele>371</ele>
        <time>2023-12-21T11:37:07Z</time>
      </trkpt>
      <trkpt lat="43.29929" lon="-1.32344">
        <ele>368</ele>
        <time>2023-12-21T11:37:11Z</time>
      </trkpt>
      <trkpt lat="43.2994" lon="-1.32332">
        <ele>367</ele>
        <time>2023-12-21T11:37:18Z</time>
      </trkpt>
      <trkpt lat="43.29955" lon="-1.32307">
        <ele>367</ele>
        <time>2023-12-21T11:37:29Z</time>
      </trkpt>
      <trkpt lat="43.29964" lon="-1.32281">
        <ele>367</ele>
        <time>2023-12-21T11:37:40Z</time>
      </trkpt>
      <trkpt lat="43.29967" lon="-1.32254">
        <ele>370</ele>
        <time>2023-12-21T11:37:50Z</time>
      </trkpt>
      <trkpt lat="43.29976" lon="-1.3224">
        <ele>370</ele>
        <time>2023-12-21T11:37:57Z</time>
      </trkpt>
      <trkpt lat="43.29996" lon="-1.32223">
        <ele>366</ele>
        <time>2023-12-21T11:38:08Z</time>
      </trkpt>
      <trkpt lat="43.30045" lon="-1.32157">
        <ele>364</ele>
        <time>2023-12-21T11:38:43Z</time>
      </trkpt>
      <trkpt lat="43.30055" lon="-1.32154">
        <ele>362</ele>
        <time>2023-12-21T11:38:48Z</time>
      </trkpt>
      <trkpt lat="43.30067" lon="-1.32162">
        <ele>356</ele>
        <time>2023-12-21T11:38:55Z</time>
      </trkpt>
      <trkpt lat="43.30115" lon="-1.32178">
        <ele>342</ele>
        <time>2023-12-21T11:39:19Z</time>
      </trkpt>
      <trkpt lat="43.3015" lon="-1.32195">
        <ele>336</ele>
        <time>2023-12-21T11:39:38Z</time>
      </trkpt>
      <trkpt lat="43.30161" lon="-1.32185">
        <ele>336</ele>
        <time>2023-12-21T11:39:44Z</time>
      </trkpt>
      <trkpt lat="43.30166" lon="-1.32175">
        <ele>337</ele>
        <time>2023-12-21T11:39:49Z</time>
      </trkpt>
      <trkpt lat="43.30164" lon="-1.32157">
        <ele>339</ele>
        <time>2023-12-21T11:39:55Z</time>
      </trkpt>
      <trkpt lat="43.30157" lon="-1.32134">
        <ele>341</ele>
        <time>2023-12-21T11:40:05Z</time>
      </trkpt>
      <trkpt lat="43.30148" lon="-1.32065">
        <ele>348</ele>
        <time>2023-12-21T11:40:30Z</time>
      </trkpt>
      <trkpt lat="43.30136" lon="-1.32012">
        <ele>358</ele>
        <time>2023-12-21T11:40:50Z</time>
      </trkpt>
      <trkpt lat="43.3013" lon="-1.31995">
        <ele>362</ele>
        <time>2023-12-21T11:40:57Z</time>
      </trkpt>
      <trkpt lat="43.30115" lon="-1.31968">
        <ele>372</ele>
        <time>2023-12-21T11:41:10Z</time>
      </trkpt>
      <trkpt lat="43.30122" lon="-1.31927">
        <ele>370</ele>
        <time>2023-12-21T11:41:25Z</time>
      </trkpt>
      <trkpt lat="43.3011" lon="-1.31896">
        <ele>376</ele>
        <time>2023-12-21T11:41:38Z</time>
      </trkpt>
      <trkpt lat="43.30099" lon="-1.31885">
        <ele>382</ele>
        <time>2023-12-21T11:41:44Z</time>
      </trkpt>
      <trkpt lat="43.3008" lon="-1.31876">
        <ele>392</ele>
        <time>2023-12-21T11:41:55Z</time>
      </trkpt>
      <trkpt lat="43.30072" lon="-1.31868">
        <ele>397</ele>
        <time>2023-12-21T11:41:59Z</time>
      </trkpt>
      <trkpt lat="43.3007" lon="-1.31856">
        <ele>399</ele>
        <time>2023-12-21T11:42:04Z</time>
      </trkpt>
      <trkpt lat="43.30072" lon="-1.31828">
        <ele>396</ele>
        <time>2023-12-21T11:42:14Z</time>
      </trkpt>
      <trkpt lat="43.30065" lon="-1.31795">
        <ele>398</ele>
        <time>2023-12-21T11:42:27Z</time>
      </trkpt>
      <trkpt lat="43.30064" lon="-1.31758">
        <ele>395</ele>
        <time>2023-12-21T11:42:40Z</time>
      </trkpt>
      <trkpt lat="43.30056" lon="-1.31732">
        <ele>397</ele>
        <time>2023-12-21T11:42:50Z</time>
      </trkpt>
      <trkpt lat="43.30055" lon="-1.31707">
        <ele>394</ele>
        <time>2023-12-21T11:43:00Z</time>
      </trkpt>
      <trkpt lat="43.30069" lon="-1.31646">
        <ele>380</ele>
        <time>2023-12-21T11:43:23Z</time>
      </trkpt>
      <trkpt lat="43.30068" lon="-1.3162">
        <ele>377</ele>
        <time>2023-12-21T11:43:32Z</time>
      </trkpt>
      <trkpt lat="43.3006" lon="-1.31611">
        <ele>378</ele>
        <time>2023-12-21T11:43:38Z</time>
      </trkpt>
      <trkpt lat="43.30036" lon="-1.31609">
        <ele>384</ele>
        <time>2023-12-21T11:43:50Z</time>
      </trkpt>
      <trkpt lat="43.30005" lon="-1.3162">
        <ele>396</ele>
        <time>2023-12-21T11:44:06Z</time>
      </trkpt>
      <trkpt lat="43.29951" lon="-1.31627">
        <ele>409</ele>
        <time>2023-12-21T11:44:33Z</time>
      </trkpt>
      <trkpt lat="43.29939" lon="-1.31624">
        <ele>410</ele>
        <time>2023-12-21T11:44:39Z</time>
      </trkpt>
      <trkpt lat="43.29912" lon="-1.31602">
        <ele>406</ele>
        <time>2023-12-21T11:44:55Z</time>
      </trkpt>
      <trkpt lat="43.29901" lon="-1.316">
        <ele>409</ele>
        <time>2023-12-21T11:45:00Z</time>
      </trkpt>
      <trkpt lat="43.29891" lon="-1.31591">
        <ele>409</ele>
        <time>2023-12-21T11:45:06Z</time>
      </trkpt>
      <trkpt lat="43.29871" lon="-1.31563">
        <ele>410</ele>
        <time>2023-12-21T11:45:20Z</time>
      </trkpt>
      <trkpt lat="43.29841" lon="-1.3155">
        <ele>420</ele>
        <time>2023-12-21T11:45:36Z</time>
      </trkpt>
      <trkpt lat="43.2985" lon="-1.31445">
        <ele>412</ele>
        <time>2023-12-21T11:46:15Z</time>
      </trkpt>
      <trkpt lat="43.2986" lon="-1.31419">
        <ele>408</ele>
        <time>2023-12-21T11:46:25Z</time>
      </trkpt>
      <trkpt lat="43.29862" lon="-1.31392">
        <ele>407</ele>
        <time>2023-12-21T11:46:35Z</time>
      </trkpt>
      <trkpt lat="43.29856" lon="-1.31373">
        <ele>409</ele>
        <time>2023-12-21T11:46:43Z</time>
      </trkpt>
      <trkpt lat="43.29833" lon="-1.31353">
        <ele>416</ele>
        <time>2023-12-21T11:46:56Z</time>
      </trkpt>
      <trkpt lat="43.29812" lon="-1.31347">
        <ele>418</ele>
        <time>2023-12-21T11:47:07Z</time>
      </trkpt>
      <trkpt lat="43.29789" lon="-1.31344">
        <ele>421</ele>
        <time>2023-12-21T11:47:19Z</time>
      </trkpt>
      <trkpt lat="43.29768" lon="-1.31333">
        <ele>421</ele>
        <time>2023-12-21T11:47:30Z</time>
      </trkpt>
      <trkpt lat="43.29777" lon="-1.31328">
        <ele>418</ele>
        <time>2023-12-21T11:47:35Z</time>
      </trkpt>
      <trkpt lat="43.29792" lon="-1.31326">
        <ele>416</ele>
        <time>2023-12-21T11:47:42Z</time>
      </trkpt>
      <trkpt lat="43.29884" lon="-1.31335">
        <ele>398</ele>
        <time>2023-12-21T11:48:28Z</time>
      </trkpt>
      <trkpt lat="43.29932" lon="-1.31324">
        <ele>380</ele>
        <time>2023-12-21T11:48:53Z</time>
      </trkpt>
      <trkpt lat="43.29947" lon="-1.31317">
        <ele>374</ele>
        <time>2023-12-21T11:49:01Z</time>
      </trkpt>
      <trkpt lat="43.29964" lon="-1.313">
        <ele>367</ele>
        <time>2023-12-21T11:49:11Z</time>
      </trkpt>
      <trkpt lat="43.29977" lon="-1.31296">
        <ele>362</ele>
        <time>2023-12-21T11:49:18Z</time>
      </trkpt>
      <trkpt lat="43.30017" lon="-1.31295">
        <ele>349</ele>
        <time>2023-12-21T11:49:38Z</time>
      </trkpt>
      <trkpt lat="43.30061" lon="-1.31276">
        <ele>336</ele>
        <time>2023-12-21T11:50:01Z</time>
      </trkpt>
      <trkpt lat="43.30129" lon="-1.31259">
        <ele>317</ele>
        <time>2023-12-21T11:50:36Z</time>
      </trkpt>
      <trkpt lat="43.3015" lon="-1.3124">
        <ele>312</ele>
        <time>2023-12-21T11:50:48Z</time>
      </trkpt>
      <trkpt lat="43.30166" lon="-1.31231">
        <ele>307</ele>
        <time>2023-12-21T11:50:57Z</time>
      </trkpt>
      <trkpt lat="43.30197" lon="-1.31221">
        <ele>301</ele>
        <time>2023-12-21T11:51:13Z</time>
      </trkpt>
      <trkpt lat="43.30274" lon="-1.3118">
        <ele>297</ele>
        <time>2023-12-21T11:51:54Z</time>
      </trkpt>
      <trkpt lat="43.3032" lon="-1.31163">
        <ele>296</ele>
        <time>2023-12-21T11:52:18Z</time>
      </trkpt>
      <trkpt lat="43.30363" lon="-1.3114">
        <ele>290</ele>
        <time>2023-12-21T11:52:41Z</time>
      </trkpt>
      <trkpt lat="43.30382" lon="-1.31133">
        <ele>288</ele>
        <time>2023-12-21T11:52:51Z</time>
      </trkpt>
      <trkpt lat="43.30395" lon="-1.31133">
        <ele>287</ele>
        <time>2023-12-21T11:52:57Z</time>
      </trkpt>
      <trkpt lat="43.30405" lon="-1.31137">
        <ele>286</ele>
        <time>2023-12-21T11:53:03Z</time>
      </trkpt>
      <trkpt lat="43.30421" lon="-1.31153">
        <ele>285</ele>
        <time>2023-12-21T11:53:13Z</time>
      </trkpt>
      <trkpt lat="43.30436" lon="-1.31181">
        <ele>282</ele>
        <time>2023-12-21T11:53:25Z</time>
      </trkpt>
      <trkpt lat="43.30449" lon="-1.31197">
        <ele>280</ele>
        <time>2023-12-21T11:53:34Z</time>
      </trkpt>
      <trkpt lat="43.30467" lon="-1.3121">
        <ele>279</ele>
        <time>2023-12-21T11:53:44Z</time>
      </trkpt>
      <trkpt lat="43.3048" lon="-1.31214">
        <ele>279</ele>
        <time>2023-12-21T11:53:51Z</time>
      </trkpt>
      <trkpt lat="43.30531" lon="-1.31207">
        <ele>276</ele>
        <time>2023-12-21T11:54:16Z</time>
      </trkpt>
      <trkpt lat="43.30552" lon="-1.31194">
        <ele>274</ele>
        <time>2023-12-21T11:54:28Z</time>
      </trkpt>
      <trkpt lat="43.30575" lon="-1.31167">
        <ele>272</ele>
        <time>2023-12-21T11:54:43Z</time>
      </trkpt>
      <trkpt lat="43.30589" lon="-1.31164">
        <ele>269</ele>
        <time>2023-12-21T11:54:50Z</time>
      </trkpt>
      <trkpt lat="43.30617" lon="-1.31173">
        <ele>265</ele>
        <time>2023-12-21T11:55:05Z</time>
      </trkpt>
      <trkpt lat="43.30646" lon="-1.31179">
        <ele>259</ele>
        <time>2023-12-21T11:55:19Z</time>
      </trkpt>
      <trkpt lat="43.3073" lon="-1.31166">
        <ele>242</ele>
        <time>2023-12-21T11:56:02Z</time>
      </trkpt>
      <trkpt lat="43.3074" lon="-1.31166">
        <ele>240</ele>
        <time>2023-12-21T11:56:07Z</time>
      </trkpt>
      <trkpt lat="43.30768" lon="-1.31172">
        <ele>235</ele>
        <time>2023-12-21T11:56:21Z</time>
      </trkpt>
      <trkpt lat="43.3078" lon="-1.3117">
        <ele>232</ele>
        <time>2023-12-21T11:56:27Z</time>
      </trkpt>
      <trkpt lat="43.30803" lon="-1.31156">
        <ele>226</ele>
        <time>2023-12-21T11:56:39Z</time>
      </trkpt>
      <trkpt lat="43.30827" lon="-1.31127">
        <ele>219</ele>
        <time>2023-12-21T11:56:55Z</time>
      </trkpt>
      <trkpt lat="43.30845" lon="-1.31094">
        <ele>214</ele>
        <time>2023-12-21T11:57:10Z</time>
      </trkpt>
      <trkpt lat="43.30858" lon="-1.31058">
        <ele>210</ele>
        <time>2023-12-21T11:57:25Z</time>
      </trkpt>
      <trkpt lat="43.30869" lon="-1.31011">
        <ele>205</ele>
        <time>2023-12-21T11:57:43Z</time>
      </trkpt>
      <trkpt lat="43.30877" lon="-1.31007">
        <ele>203</ele>
        <time>2023-12-21T11:57:47Z</time>
      </trkpt>
      <trkpt lat="43.30898" lon="-1.31015">
        <ele>201</ele>
        <time>2023-12-21T11:57:58Z</time>
      </trkpt>
      <trkpt lat="43.30943" lon="-1.31027">
        <ele>196</ele>
        <time>2023-12-21T11:58:21Z</time>
      </trkpt>
      <trkpt lat="43.30996" lon="-1.31047">
        <ele>189</ele>
        <time>2023-12-21T11:58:49Z</time>
      </trkpt>
      <trkpt lat="43.31046" lon="-1.31059">
        <ele>184</ele>
        <time>2023-12-21T11:59:14Z</time>
      </trkpt>
      <trkpt lat="43.31111" lon="-1.31046">
        <ele>176</ele>
        <time>2023-12-21T11:59:47Z</time>
      </trkpt>
      <trkpt lat="43.31121" lon="-1.31042">
        <ele>175</ele>
        <time>2023-12-21T11:59:52Z</time>
      </trkpt>
      <trkpt lat="43.31123" lon="-1.31035">
        <ele>174</ele>
        <time>2023-12-21T11:59:55Z</time>
      </trkpt>
      <trkpt lat="43.31124" lon="-1.31023">
        <ele>174</ele>
        <time>2023-12-21T11:59:59Z</time>
      </trkpt>
      <trkpt lat="43.31114" lon="-1.30995">
        <ele>176</ele>
        <time>2023-12-21T12:00:11Z</time>
      </trkpt>
      <trkpt lat="43.31101" lon="-1.30969">
        <ele>177</ele>
        <time>2023-12-21T12:00:22Z</time>
      </trkpt>
      <trkpt lat="43.31087" lon="-1.30951">
        <ele>178</ele>
        <time>2023-12-21T12:00:32Z</time>
      </trkpt>
      <trkpt lat="43.3105" lon="-1.3089">
        <ele>179</ele>
        <time>2023-12-21T12:01:01Z</time>
      </trkpt>
      <trkpt lat="43.31022" lon="-1.30822">
        <ele>182</ele>
        <time>2023-12-21T12:01:29Z</time>
      </trkpt>
      <trkpt lat="43.31" lon="-1.3078">
        <ele>184</ele>
        <time>2023-12-21T12:01:48Z</time>
      </trkpt>
      <trkpt lat="43.30983" lon="-1.30764">
        <ele>187</ele>
        <time>2023-12-21T12:01:58Z</time>
      </trkpt>
      <trkpt lat="43.30952" lon="-1.30755">
        <ele>191</ele>
        <time>2023-12-21T12:02:14Z</time>
      </trkpt>
      <trkpt lat="43.30928" lon="-1.30732">
        <ele>195</ele>
        <time>2023-12-21T12:02:29Z</time>
      </trkpt>
      <trkpt lat="43.30891" lon="-1.30717">
        <ele>199</ele>
        <time>2023-12-21T12:02:48Z</time>
      </trkpt>
      <trkpt lat="43.30883" lon="-1.30711">
        <ele>199</ele>
        <time>2023-12-21T12:02:53Z</time>
      </trkpt>
      <trkpt lat="43.3087" lon="-1.30693">
        <ele>200</ele>
        <time>2023-12-21T12:03:02Z</time>
      </trkpt>
      <trkpt lat="43.30862" lon="-1.30664">
        <ele>200</ele>
        <time>2023-12-21T12:03:13Z</time>
      </trkpt>
      <trkpt lat="43.30862" lon="-1.30637">
        <ele>201</ele>
        <time>2023-12-21T12:03:23Z</time>
      </trkpt>
      <trkpt lat="43.30856" lon="-1.30592">
        <ele>204</ele>
        <time>2023-12-21T12:03:40Z</time>
      </trkpt>
      <trkpt lat="43.30841" lon="-1.30533">
        <ele>209</ele>
        <time>2023-12-21T12:04:02Z</time>
      </trkpt>
      <trkpt lat="43.30834" lon="-1.30517">
        <ele>211</ele>
        <time>2023-12-21T12:04:09Z</time>
      </trkpt>
      <trkpt lat="43.30809" lon="-1.30479">
        <ele>215</ele>
        <time>2023-12-21T12:04:28Z</time>
      </trkpt>
      <trkpt lat="43.30748" lon="-1.30371">
        <ele>226</ele>
        <time>2023-12-21T12:05:18Z</time>
      </trkpt>
      <trkpt lat="43.30683" lon="-1.30277">
        <ele>241</ele>
        <time>2023-12-21T12:06:05Z</time>
      </trkpt>
      <trkpt lat="43.3067" lon="-1.30249">
        <ele>246</ele>
        <time>2023-12-21T12:06:17Z</time>
      </trkpt>
      <trkpt lat="43.30662" lon="-1.3022">
        <ele>251</ele>
        <time>2023-12-21T12:06:28Z</time>
      </trkpt>
      <trkpt lat="43.30651" lon="-1.30116">
        <ele>265</ele>
        <time>2023-12-21T12:07:06Z</time>
      </trkpt>
      <trkpt lat="43.30645" lon="-1.30083">
        <ele>270</ele>
        <time>2023-12-21T12:07:19Z</time>
      </trkpt>
      <trkpt lat="43.30633" lon="-1.30047">
        <ele>274</ele>
        <time>2023-12-21T12:07:33Z</time>
      </trkpt>
      <trkpt lat="43.30623" lon="-1.30027">
        <ele>277</ele>
        <time>2023-12-21T12:07:42Z</time>
      </trkpt>
      <trkpt lat="43.30606" lon="-1.30005">
        <ele>281</ele>
        <time>2023-12-21T12:07:54Z</time>
      </trkpt>
      <trkpt lat="43.30555" lon="-1.29958">
        <ele>286</ele>
        <time>2023-12-21T12:08:24Z</time>
      </trkpt>
      <trkpt lat="43.30535" lon="-1.29929">
        <ele>290</ele>
        <time>2023-12-21T12:08:39Z</time>
      </trkpt>
      <trkpt lat="43.30512" lon="-1.29872">
        <ele>300</ele>
        <time>2023-12-21T12:09:03Z</time>
      </trkpt>
      <trkpt lat="43.30502" lon="-1.29854">
        <ele>304</ele>
        <time>2023-12-21T12:09:11Z</time>
      </trkpt>
      <trkpt lat="43.3048" lon="-1.29833">
        <ele>312</ele>
        <time>2023-12-21T12:09:24Z</time>
      </trkpt>
      <trkpt lat="43.30459" lon="-1.29797">
        <ele>324</ele>
        <time>2023-12-21T12:09:41Z</time>
      </trkpt>
      <trkpt lat="43.30445" lon="-1.29794">
        <ele>329</ele>
        <time>2023-12-21T12:09:48Z</time>
      </trkpt>
      <trkpt lat="43.30426" lon="-1.29776">
        <ele>337</ele>
        <time>2023-12-21T12:10:00Z</time>
      </trkpt>
      <trkpt lat="43.30416" lon="-1.29747">
        <ele>346</ele>
        <time>2023-12-21T12:10:12Z</time>
      </trkpt>
      <trkpt lat="43.30405" lon="-1.29736">
        <ele>348</ele>
        <time>2023-12-21T12:10:18Z</time>
      </trkpt>
      <trkpt lat="43.30401" lon="-1.2972">
        <ele>352</ele>
        <time>2023-12-21T12:10:25Z</time>
      </trkpt>
      <trkpt lat="43.3038" lon="-1.29668">
        <ele>364</ele>
        <time>2023-12-21T12:10:46Z</time>
      </trkpt>
      <trkpt lat="43.30374" lon="-1.29641">
        <ele>372</ele>
        <time>2023-12-21T12:10:56Z</time>
      </trkpt>
      <trkpt lat="43.30364" lon="-1.2962">
        <ele>378</ele>
        <time>2023-12-21T12:11:06Z</time>
      </trkpt>
      <trkpt lat="43.30361" lon="-1.296">
        <ele>384</ele>
        <time>2023-12-21T12:11:13Z</time>
      </trkpt>
      <trkpt lat="43.30363" lon="-1.29574">
        <ele>390</ele>
        <time>2023-12-21T12:11:23Z</time>
      </trkpt>
      <trkpt lat="43.30358" lon="-1.29547">
        <ele>395</ele>
        <time>2023-12-21T12:11:33Z</time>
      </trkpt>
      <trkpt lat="43.30359" lon="-1.29511">
        <ele>401</ele>
        <time>2023-12-21T12:11:46Z</time>
      </trkpt>
      <trkpt lat="43.30366" lon="-1.29484">
        <ele>403</ele>
        <time>2023-12-21T12:11:56Z</time>
      </trkpt>
      <trkpt lat="43.30362" lon="-1.29463">
        <ele>406</ele>
        <time>2023-12-21T12:12:04Z</time>
      </trkpt>
      <trkpt lat="43.30356" lon="-1.2945">
        <ele>408</ele>
        <time>2023-12-21T12:12:10Z</time>
      </trkpt>
      <trkpt lat="43.30336" lon="-1.29436">
        <ele>415</ele>
        <time>2023-12-21T12:12:21Z</time>
      </trkpt>
      <trkpt lat="43.30314" lon="-1.29412">
        <ele>422</ele>
        <time>2023-12-21T12:12:35Z</time>
      </trkpt>
      <trkpt lat="43.3031" lon="-1.29398">
        <ele>424</ele>
        <time>2023-12-21T12:12:41Z</time>
      </trkpt>
      <trkpt lat="43.30318" lon="-1.29336">
        <ele>426</ele>
        <time>2023-12-21T12:13:03Z</time>
      </trkpt>
      <trkpt lat="43.30324" lon="-1.29309">
        <ele>428</ele>
        <time>2023-12-21T12:13:14Z</time>
      </trkpt>
      <trkpt lat="43.30341" lon="-1.29295">
        <ele>426</ele>
        <time>2023-12-21T12:13:24Z</time>
      </trkpt>
      <trkpt lat="43.30349" lon="-1.2928">
        <ele>427</ele>
        <time>2023-12-21T12:13:30Z</time>
      </trkpt>
      <trkpt lat="43.30371" lon="-1.29251">
        <ele>426</ele>
        <time>2023-12-21T12:13:46Z</time>
      </trkpt>
      <trkpt lat="43.30376" lon="-1.29235">
        <ele>427</ele>
        <time>2023-12-21T12:13:52Z</time>
      </trkpt>
      <trkpt lat="43.30386" lon="-1.29181">
        <ele>429</ele>
        <time>2023-12-21T12:14:12Z</time>
      </trkpt>
      <trkpt lat="43.30399" lon="-1.29146">
        <ele>427</ele>
        <time>2023-12-21T12:14:27Z</time>
      </trkpt>
      <trkpt lat="43.30413" lon="-1.29081">
        <ele>424</ele>
        <time>2023-12-21T12:14:51Z</time>
      </trkpt>
      <trkpt lat="43.30414" lon="-1.29053">
        <ele>423</ele>
        <time>2023-12-21T12:15:02Z</time>
      </trkpt>
      <trkpt lat="43.3041" lon="-1.2903">
        <ele>423</ele>
        <time>2023-12-21T12:15:10Z</time>
      </trkpt>
      <trkpt lat="43.30411" lon="-1.29013">
        <ele>422</ele>
        <time>2023-12-21T12:15:16Z</time>
      </trkpt>
      <trkpt lat="43.30438" lon="-1.28967">
        <ele>414</ele>
        <time>2023-12-21T12:15:38Z</time>
      </trkpt>
      <trkpt lat="43.30443" lon="-1.28949">
        <ele>412</ele>
        <time>2023-12-21T12:15:45Z</time>
      </trkpt>
      <trkpt lat="43.30448" lon="-1.28887">
        <ele>412</ele>
        <time>2023-12-21T12:16:08Z</time>
      </trkpt>
      <trkpt lat="43.30434" lon="-1.28861">
        <ele>418</ele>
        <time>2023-12-21T12:16:19Z</time>
      </trkpt>
      <trkpt lat="43.30431" lon="-1.28851">
        <ele>419</ele>
        <time>2023-12-21T12:16:23Z</time>
      </trkpt>
      <trkpt lat="43.30433" lon="-1.28833">
        <ele>419</ele>
        <time>2023-12-21T12:16:30Z</time>
      </trkpt>
      <trkpt lat="43.30441" lon="-1.28814">
        <ele>419</ele>
        <time>2023-12-21T12:16:38Z</time>
      </trkpt>
      <trkpt lat="43.30443" lon="-1.28791">
        <ele>422</ele>
        <time>2023-12-21T12:16:46Z</time>
      </trkpt>
      <trkpt lat="43.30456" lon="-1.28746">
        <ele>424</ele>
        <time>2023-12-21T12:17:04Z</time>
      </trkpt>
      <trkpt lat="43.30447" lon="-1.28728">
        <ele>428</ele>
        <time>2023-12-21T12:17:12Z</time>
      </trkpt>
      <trkpt lat="43.30423" lon="-1.28709">
        <ele>437</ele>
        <time>2023-12-21T12:17:26Z</time>
      </trkpt>
      <trkpt lat="43.30404" lon="-1.28664">
        <ele>447</ele>
        <time>2023-12-21T12:17:45Z</time>
      </trkpt>
      <trkpt lat="43.30376" lon="-1.2862">
        <ele>454</ele>
        <time>2023-12-21T12:18:06Z</time>
      </trkpt>
      <trkpt lat="43.30357" lon="-1.28609">
        <ele>458</ele>
        <time>2023-12-21T12:18:16Z</time>
      </trkpt>
      <trkpt lat="43.3032" lon="-1.28614">
        <ele>464</ele>
        <time>2023-12-21T12:18:35Z</time>
      </trkpt>
      <trkpt lat="43.30312" lon="-1.28607">
        <ele>466</ele>
        <time>2023-12-21T12:18:40Z</time>
      </trkpt>
      <trkpt lat="43.30303" lon="-1.2859">
        <ele>468</ele>
        <time>2023-12-21T12:18:47Z</time>
      </trkpt>
      <trkpt lat="43.30302" lon="-1.28563">
        <ele>466</ele>
        <time>2023-12-21T12:18:57Z</time>
      </trkpt>
      <trkpt lat="43.30309" lon="-1.28535">
        <ele>462</ele>
        <time>2023-12-21T12:19:08Z</time>
      </trkpt>
      <trkpt lat="43.30375" lon="-1.28441">
        <ele>443</ele>
        <time>2023-12-21T12:19:56Z</time>
      </trkpt>
      <trkpt lat="43.30399" lon="-1.28371">
        <ele>432</ele>
        <time>2023-12-21T12:20:24Z</time>
      </trkpt>
      <trkpt lat="43.30414" lon="-1.2836">
        <ele>431</ele>
        <time>2023-12-21T12:20:32Z</time>
      </trkpt>
      <trkpt lat="43.30443" lon="-1.28358">
        <ele>423</ele>
        <time>2023-12-21T12:20:47Z</time>
      </trkpt>
      <trkpt lat="43.30464" lon="-1.2836">
        <ele>417</ele>
        <time>2023-12-21T12:20:57Z</time>
      </trkpt>
      <trkpt lat="43.30477" lon="-1.28363">
        <ele>413</ele>
        <time>2023-12-21T12:21:04Z</time>
      </trkpt>
      <trkpt lat="43.305" lon="-1.28385">
        <ele>408</ele>
        <time>2023-12-21T12:21:18Z</time>
      </trkpt>
      <trkpt lat="43.30512" lon="-1.28385">
        <ele>403</ele>
        <time>2023-12-21T12:21:24Z</time>
      </trkpt>
      <trkpt lat="43.30521" lon="-1.28354">
        <ele>397</ele>
        <time>2023-12-21T12:21:36Z</time>
      </trkpt>
      <trkpt lat="43.30518" lon="-1.2832">
        <ele>396</ele>
        <time>2023-12-21T12:21:49Z</time>
      </trkpt>
      <trkpt lat="43.30521" lon="-1.28294">
        <ele>392</ele>
        <time>2023-12-21T12:21:58Z</time>
      </trkpt>
      <trkpt lat="43.30534" lon="-1.2825">
        <ele>383</ele>
        <time>2023-12-21T12:22:15Z</time>
      </trkpt>
      <trkpt lat="43.30538" lon="-1.28226">
        <ele>378</ele>
        <time>2023-12-21T12:22:24Z</time>
      </trkpt>
      <trkpt lat="43.30541" lon="-1.28199">
        <ele>374</ele>
        <time>2023-12-21T12:22:34Z</time>
      </trkpt>
      <trkpt lat="43.3054" lon="-1.28162">
        <ele>370</ele>
        <time>2023-12-21T12:22:48Z</time>
      </trkpt>
      <trkpt lat="43.30547" lon="-1.28152">
        <ele>367</ele>
        <time>2023-12-21T12:22:53Z</time>
      </trkpt>
      <trkpt lat="43.30559" lon="-1.28155">
        <ele>364</ele>
        <time>2023-12-21T12:22:59Z</time>
      </trkpt>
      <trkpt lat="43.30583" lon="-1.28188">
        <ele>359</ele>
        <time>2023-12-21T12:23:16Z</time>
      </trkpt>
      <trkpt lat="43.30604" lon="-1.28232">
        <ele>356</ele>
        <time>2023-12-21T12:23:35Z</time>
      </trkpt>
      <trkpt lat="43.30616" lon="-1.28267">
        <ele>354</ele>
        <time>2023-12-21T12:23:49Z</time>
      </trkpt>
      <trkpt lat="43.30636" lon="-1.2829">
        <ele>349</ele>
        <time>2023-12-21T12:24:02Z</time>
      </trkpt>
      <trkpt lat="43.3065" lon="-1.28334">
        <ele>347</ele>
        <time>2023-12-21T12:24:20Z</time>
      </trkpt>
      <trkpt lat="43.30668" lon="-1.28373">
        <ele>343</ele>
        <time>2023-12-21T12:24:37Z</time>
      </trkpt>
      <trkpt lat="43.30678" lon="-1.28409">
        <ele>341</ele>
        <time>2023-12-21T12:24:51Z</time>
      </trkpt>
      <trkpt lat="43.30686" lon="-1.28418">
        <ele>338</ele>
        <time>2023-12-21T12:24:56Z</time>
      </trkpt>
      <trkpt lat="43.30719" lon="-1.2844">
        <ele>326</ele>
        <time>2023-12-21T12:25:14Z</time>
      </trkpt>
      <trkpt lat="43.30726" lon="-1.28451">
        <ele>324</ele>
        <time>2023-12-21T12:25:20Z</time>
      </trkpt>
      <trkpt lat="43.30732" lon="-1.28472">
        <ele>322</ele>
        <time>2023-12-21T12:25:28Z</time>
      </trkpt>
      <trkpt lat="43.30733" lon="-1.28516">
        <ele>321</ele>
        <time>2023-12-21T12:25:44Z</time>
      </trkpt>
      <trkpt lat="43.3074" lon="-1.28542">
        <ele>318</ele>
        <time>2023-12-21T12:25:54Z</time>
      </trkpt>
      <trkpt lat="43.30751" lon="-1.28608">
        <ele>313</ele>
        <time>2023-12-21T12:26:19Z</time>
      </trkpt>
      <trkpt lat="43.30763" lon="-1.2859">
        <ele>309</ele>
        <time>2023-12-21T12:26:27Z</time>
      </trkpt>
      <trkpt lat="43.30782" lon="-1.28536">
        <ele>302</ele>
        <time>2023-12-21T12:26:49Z</time>
      </trkpt>
      <trkpt lat="43.30794" lon="-1.28427">
        <ele>300</ele>
        <time>2023-12-21T12:27:29Z</time>
      </trkpt>
      <trkpt lat="43.30794" lon="-1.28401">
        <ele>301</ele>
        <time>2023-12-21T12:27:39Z</time>
      </trkpt>
      <trkpt lat="43.30815" lon="-1.28349">
        <ele>297</ele>
        <time>2023-12-21T12:28:00Z</time>
      </trkpt>
      <trkpt lat="43.30849" lon="-1.28237">
        <ele>297</ele>
        <time>2023-12-21T12:28:45Z</time>
      </trkpt>
      <trkpt lat="43.3086" lon="-1.28229">
        <ele>297</ele>
        <time>2023-12-21T12:28:51Z</time>
      </trkpt>
      <trkpt lat="43.30881" lon="-1.2824">
        <ele>297</ele>
        <time>2023-12-21T12:29:02Z</time>
      </trkpt>
      <trkpt lat="43.30902" lon="-1.28245">
        <ele>297</ele>
        <time>2023-12-21T12:29:13Z</time>
      </trkpt>
      <trkpt lat="43.30923" lon="-1.2826">
        <ele>297</ele>
        <time>2023-12-21T12:29:25Z</time>
      </trkpt>
      <trkpt lat="43.30939" lon="-1.28292">
        <ele>297</ele>
        <time>2023-12-21T12:29:39Z</time>
      </trkpt>
      <trkpt lat="43.30944" lon="-1.28296">
        <ele>297</ele>
        <time>2023-12-21T12:29:42Z</time>
      </trkpt>
      <trkpt lat="43.30953" lon="-1.283">
        <ele>298</ele>
        <time>2023-12-21T12:29:46Z</time>
      </trkpt>
      <trkpt lat="43.30975" lon="-1.28297">
        <ele>299</ele>
        <time>2023-12-21T12:29:58Z</time>
        <extensions>
          <visugpx:TrkExtension xmlns:visugpx="https://www.visugpx.com/editgpx/">
            <visugpx:node>1</visugpx:node>
            </visugpx:TrkExtension>
        </extensions>
      </trkpt>
    </trkseg>
  </trk>
</gpx>